Location: Newark
(48.1500°N, 2.9667°W)
Time: 20:53:37
(UTC+00:00)

A-11 Canister half - Pass Details

Date: 25 January 2020
Orbit: 1517 x 1683 km, 47.2° (Epoch: 22 February)

Event Time Altitude Azimuth Distance (km) Brightness Sun altitude
Exits shadow 03:04:35 39° 96° (E) 2,148 9.9 -46.5°
Drops below altitude 10° 03:09:44 10° 95° (E) 3,691 11.4 -45.8°
Sets 03:12:47 0° 95° (E) 4,684 12.1 -45.3°
